User: anonymous   Login
Location: Hartman Creek State Park
(44.3257°N, 89.2134°W)
Time: 08:29:26
(UTC-05:00)
Language:

Terra - Orbit

View from above orbital plane
View from above orbital plane
View from above satellite
View from above satellite

Ground track
Ground track

The orbit data is extracted from the following two-line orbital elements,

1 25994U 99068A   17117.80142603 +.00000123 +00000-0 +37358-4 0  9998
2 25994 098.2109 193.5573 0000796 103.5014 256.6277 14.57108027923339
Epoch (UTC): 27 April 2017 19:14:03
Eccentricity: 0.0000796
inclination: 98.2109°
perigee height: 702 km
apogee height: 703 km
right ascension of ascending node: 193.5573°
argument of perigee: 103.5014°
revolutions per day: 14.57108027
mean anomaly at epoch: 256.6277°
orbit number at epoch: 92333

The dashed part of the orbit path shows where the satellite is in the earth's shadow,  

DLR